MIDAS 5 DEB, 18603

Orbit data source: Space-Track

MIDAS 5 DEB, 18603 is space debris in LEO originally from a launch on Mon, 09 Apr 1962 UTC via an ATLAS AGENA B launch vehicle from the Air Force Western Test Range (AFWTR). Debris objects in space refer to the collection of defunct objects orbiting the Earth. Examples of debris include non-operational satellites, rocket bodies, and fragments generated from explosions, collisions, or faulty payload assembly.

Loading next visibility...
Identifier
18603, 1962-010G
Orbit
LEO
Country
Flag of USUS
Related business
Manufacturer
MIT-LL
Mission
Spacecraft
Bus & Motor
WESTFORD DRAG, Unknown motor
Mass
~1 kg wet, ~1 kg dry
Launch date (UTC)
1962-04-09 (64 years ago)
Launch vehicle
ATLAS AGENA B
Launch site
Air Force Western Test Range (AFWTR)
Object type
Payload
Rocket body
Debris
Shape & HBR
Unknown
Radar Cross Section
Medium (>0.1 m² and <1 m²)

Expand to show TLE details & history
Last TLE update: 3 weeks ago

TLE from 3 weeks ago
0 MIDAS 5 DEB
1 18603U 62010G   25328.56799911 -.00000002  00000-0 -97234-3 0  9996
2 18603  86.6952 355.6869 0288847 312.2876 210.2267  9.41009928359294
Epoch: 2025-11-24T13:37Z
TLE epoch observation values (Epoch: 2025-11-24T13:37:55.123Z)
Latitude
19.06397°
Longitude
-93.69769°
Altitude
3,339.274 km
Speed
6.325 km/s
True Right ascension
11h 38m 11s
True Declination
18° 59' 10"
Sunlit
Object was in daylight at epoch
Visualization orbit readout
Latitude
Unknown
Longitude
Unknown
Altitude
Unknown
Speed
Unknown
Apparent Right ascension
Unknown
Apparent Declination
Unknown
Sunlit
N/A
Visualization observer readout
Local Sidereal Time
16:07:17
Azimuth
Unknown
Elevation
Unknown
Doppler factor
Unknown
Orbital elements
Apogee altitude
3,370.273 km
Perigee altitude
2,822.924 km
Semi-major axis
9,474.735 km
Eccentricity
0.02888
Inclination
86.6952°
RAAN
355.6869°
Arg. of periapsis
312.2876°
True anomaly
208.61108°
Mean anomaly
210.2267°
Eccentric anomaly
209.41392°
Mean motion
2.35338 °/min
Orbital period
152.97 mins
BSTAR
-0.00097234
Loading maneuver chart data...
Computing Atmospheric mass density...
Loading historical data...
Loading historical data...
Loading historical data...
Loading historical data...
Loading historical data...
Loading historical data...
Loading historical data...

Documentation

Showing up to 5 results
|